Tracking 35275 objects as of 9-Sep-2026
HD Live streaming from Space Station
objects crossing your sky now

SPIN-1


SPIN-1 is no longer on orbit
SPIN-1 is classified as:


NORAD ID: 52743
Int'l Code: 2022-057M
Launch date: May 25, 2022
Source: (TBD)
Launch site: AIR FORCE EASTERN TEST RANGE (AFETR)
Decay date: 2024-11-19

Uplink (MHz):
Downlink (MHz): 401.000
Beacon (MHz):
Mode: 9k6 GFSK
Call sign:
Status: Inactive


Note: This is a ROCKET BODY
Your satellite tracking list
Your tracking list is empty




NASA's NSSDC Master Catalog

Two Line Element Set (TLE):
1 52743U 22057M   24324.33336917  .15389627  26446-5  30728-3 0  9998
2 52743  97.5435 101.3215 0010196 283.7121  76.3046 16.46510433138797
Source of the keplerian elements: AFSPC